Voltar ao catálogo

CZ-4C R/B

AtivoLEO
NORAD 36123·ROCKET BODY·🇨🇳 China

Lançado Dec 15, 2009 de Taiyuan Satellite Launch Center

Loading…

Próximas Passagens (próximas 24 horas)

TLE

AtualizadoSource: Space-Track

Época: Sep 14, 2026, 14:07 UTC

1 36123U 09072C   26257.58865255 -.00000065  00000-0 -27202-4 0  9999
2 36123 100.4966 291.4467 0157465  90.8774  72.2839 13.46242019822936

Acompanhe CZ-4C R/B em tempo real com AllMySat

Download on the App Store